DW2213 Weather Reports


time (UTC)temp
F
wind
direction
speed
knots
gust
knots
rain 1hr
in
rain 24hr
in
rain mn
in
humidity
%
barometer
mb
20260906234304 78 273 0.0 0.0 0.00 0.00 0.00 67 1015.9
20260906233805 79 273 0.0 0.0 0.00 0.00 0.00 67 1015.9
20260906233305 78 273 0.0 0.0 0.00 0.00 0.00 67 1015.9
20260906232804 78 273 0.0 0.0 0.00 0.00 0.00 67 1015.9
20260906232307 79 273 0.0 0.0 0.00 0.00 0.00 67 1015.9
20260906231804 78 273 0.0 0.0 0.00 0.00 0.00 67 1015.9
20260906231304 78 273 0.0 0.0 0.00 0.00 0.00 67 1016.0
20260906230803 78 273 0.0 0.0 0.00 0.00 0.00 67 1016.0
20260906230305 78 273 0.0 0.0 0.00 0.00 0.00 67 1016.1
20260906225805 79 273 0.0 0.0 0.00 0.00 0.00 67 1016.0
20260906224804 79 273 0.0 0.9 0.00 0.00 0.00 68 1016.0
20260906224304 79 272 0.0 0.0 0.00 0.00 0.00 68 1016.0
20260906223804 79 272 0.0 0.0 0.00 0.00 0.00 68 1016.1
20260906223304 79 272 0.0 0.0 0.00 0.00 0.00 68 1016.1
20260906222804 79 273 0.0 0.0 0.00 0.00 0.00 69 1016.0
20260906222306 79 273 0.0 0.0 0.00 0.00 0.00 70 1015.9
20260906221804 78 273 0.0 0.0 0.00 0.00 0.00 71 1015.9
20260906220817 78 279 0.0 0.0 0.00 0.00 0.00 73 1016.0
20260906220305 78 280 0.0 0.0 0.00 0.00 0.00 74 1016.1
20260906215306 78 281 0.0 1.7 0.00 0.00 0.00 75 1015.9
20260906214304 78 279 0.0 1.7 0.00 0.00 0.00 75 1015.9
20260906213804 78 241 0.0 0.0 0.00 0.00 0.00 75 1015.8
20260906213304 78 241 0.0 0.0 0.00 0.00 0.00 75 1015.8
20260906212804 79 241 0.9 2.6 0.00 0.00 0.00 75 1015.9
20260906212306 79 279 0.0 0.0 0.00 0.00 0.00 75 1015.9
20260906211804 79 279 0.0 0.0 0.00 0.00 0.00 75 1015.9
20260906211304 79 279 0.0 1.7 0.00 0.00 0.00 74 1015.9
20260906210803 79 279 0.0 0.0 0.00 0.00 0.00 72 1015.9
20260906210304 80 279 0.0 0.9 0.00 0.00 0.00 70 1015.9
20260906205804 80 279 0.0 0.0 0.00 0.00 0.00 69 1015.9
20260906205306 81 279 0.0 0.9 0.00 0.00 0.00 67 1015.9
20260906204804 81 277 0.0 0.0 0.00 0.00 0.00 66 1015.9
20260906204304 82 277 0.0 0.0 0.00 0.00 0.00 65 1015.7
20260906203803 82 277 0.0 0.9 0.00 0.00 0.00 63 1015.8
20260906203304 83 277 0.0 0.0 0.00 0.00 0.00 61 1015.7
20260906202804 84 277 0.0 1.7 0.00 0.00 0.00 58 1015.8
20260906202306 85 343 0.0 0.0 0.00 0.00 0.00 56 1015.6
20260906201804 85 343 0.0 0.0 0.00 0.00 0.00 56 1015.6
20260906201304 85 343 0.0 0.0 0.00 0.00 0.00 56 1015.6
20260906200803 85 343 0.0 0.0 0.00 0.00 0.00 56 1015.6
20260906200303 85 343 0.0 0.0 0.00 0.00 0.00 56 1015.5
20260906195804 85 343 0.0 0.0 0.00 0.00 0.00 57 1015.4
20260906195306 85 343 0.0 2.6 0.00 0.00 0.00 58 1015.4
20260906194804 85 184 0.0 0.0 0.00 0.00 0.00 58 1015.3
20260906194303 85 184 0.0 0.0 0.00 0.00 0.00 58 1015.2
20260906193804 85 184 0.0 0.0 0.00 0.00 0.00 57 1015.1
20260906193304 85 184 0.0 0.0 0.00 0.00 0.00 57 1014.9
20260906192804 85 184 0.0 1.7 0.00 0.00 0.00 58 1014.8
20260906192306 84 185 0.9 4.3 0.00 0.00 0.00 59 1014.9
20260906191803 84 0 0.0 1.7 0.00 0.00 0.00 62 1015.0
20260906191304 84 349 0.9 2.6 0.00 0.00 0.00 62 1014.8
20260906190803 85 353 0.9 2.6 0.00 0.00 0.00 63 1014.6
20260906185804 85 150 0.0 2.6 0.00 0.00 0.00 63 1014.2
20260906185306 85 138 0.9 4.3 0.00 0.00 0.00 63 1014.1
20260906184804 85 151 0.9 6.1 0.00 0.00 0.00 62 1014.1
20260906183803 85 140 0.0 4.3 0.00 0.00 0.00 61 1013.9
20260906182804 86 151 0.9 5.2 0.00 0.00 0.00 58 1014.0
20260906182306 86 133 1.7 4.3 0.00 0.00 0.00 58 1014.0
20260906181804 86 131 0.9 6.1 0.00 0.00 0.00 57 1014.1
20260906181304 86 140 0.9 6.1 0.00 0.00 0.00 56 1014.1
20260906180804 87 149 0.9 4.3 0.00 0.00 0.00 55 1014.1
20260906180303 87 151 0.0 5.2 0.00 0.00 0.00 54 1014.1
20260906174803 87 130 0.9 5.2 0.00 0.00 0.00 53 1014.1
20260906174303 87 136 1.7 7.0 0.00 0.00 0.00 52 1014.1
20260906173803 88 133 2.6 7.0 0.00 0.00 0.00 51 1014.1
20260906173304 88 159 1.7 7.0 0.00 0.00 0.00 50 1014.1
20260906172803 88 136 2.6 7.0 0.00 0.00 0.00 49 1014.0
20260906171804 89 132 2.6 10.4 0.00 0.00 0.00 47 1014.0
20260906171303 89 131 2.6 7.0 0.00 0.00 0.00 46 1013.9
20260906170804 90 127 0.9 10.4 0.00 0.00 0.00 46 1013.9
20260906170305 90 114 2.6 10.4 0.00 0.00 0.00 44 1013.9
20260906165306 91 150 2.6 7.0 0.00 0.00 0.00 44 1013.8
20260906164805 91 134 2.6 7.0 0.00 0.00 0.00 43 1013.8
20260906164305 90 136 2.6 7.0 0.00 0.00 0.00 42 1013.9
20260906163804 91 129 2.6 6.1 0.00 0.00 0.00 42 1014.0
20260906163304 91 144 1.7 6.1 0.00 0.00 0.00 42 1014.0
20260906162805 91 139 2.6 7.8 0.00 0.00 0.00 42 1013.9
20260906162306 91 141 4.3 7.8 0.00 0.00 0.00 42 1013.9
20260906161805 92 141 1.7 7.0 0.00 0.00 0.00 41 1013.9
20260906161305 92 143 2.6 7.8 0.00 0.00 0.00 40 1013.9
20260906160305 93 126 3.5 7.0 0.00 0.00 0.00 38 1014.0
20260906155805 93 137 3.5 7.8 0.00 0.00 0.00 38 1014.0
20260906155307 93 125 3.5 7.0 0.00 0.00 0.00 38 1014.0
20260906154805 93 133 2.6 7.8 0.00 0.00 0.00 38 1014.0
20260906154305 94 148 1.7 6.1 0.00 0.00 0.00 39 1014.0
20260906153805 93 128 4.3 7.0 0.00 0.00 0.00 39 1014.1
20260906153305 93 142 2.6 7.0 0.00 0.00 0.00 38 1014.1
20260906152805 94 131 2.6 7.8 0.00 0.00 0.00 39 1014.1
20260906152307 94 130 2.6 6.1 0.00 0.00 0.00 40 1014.1
20260906151805 94 130 2.6 7.0 0.00 0.00 0.00 40 1014.1
20260906151305 94 152 3.5 10.4 0.00 0.00 0.00 40 1014.2
20260906150805 94 162 1.7 7.8 0.00 0.00 0.00 42 1014.1
20260906145805 94 131 1.7 5.2 0.00 0.00 0.00 42 1014.1
20260906144805 94 135 2.6 6.1 0.00 0.00 0.00 39 1014.3
20260906144305 94 142 1.7 6.1 0.00 0.00 0.00 40 1014.4
20260906143805 94 132 1.7 7.8 0.00 0.00 0.00 40 1014.4
20260906143304 94 147 0.9 5.2 0.00 0.00 0.00 41 1014.4
20260906142805 94 129 2.6 7.8 0.00 0.00 0.00 39 1014.5
20260906142307 94 138 2.6 7.8 0.00 0.00 0.00 40 1014.5
20260906141305 94 112 1.7 5.2 0.00 0.00 0.00 43 1014.5
20260906135804 93 128 1.7 6.1 0.00 0.00 0.00 44 1014.8
20260906134805 93 155 2.6 6.1 0.00 0.00 0.00 44 1015.0
20260906134305 93 128 1.7 7.0 0.00 0.00 0.00 44 1015.1
20260906133805 93 135 1.7 5.2 0.00 0.00 0.00 44 1015.0
20260906132805 92 136 0.9 4.3 0.00 0.00 0.00 45 1015.1
20260906132307 92 141 0.9 6.1 0.00 0.00 0.00 45 1015.1
20260906131805 92 145 1.7 6.1 0.00 0.00 0.00 43 1015.1
20260906131305 93 142 2.6 6.1 0.00 0.00 0.00 42 1015.2
20260906130805 93 135 1.7 5.2 0.00 0.00 0.00 44 1015.3
20260906125805 93 130 1.7 6.1 0.00 0.00 0.00 44 1015.2
20260906125306 93 144 1.7 5.2 0.00 0.00 0.00 43 1015.2
20260906124805 93 145 1.7 6.1 0.00 0.00 0.00 44 1015.2
20260906124304 94 145 1.7 6.1 0.00 0.00 0.00 45 1015.2
20260906123805 94 145 1.7 6.1 0.00 0.00 0.00 42 1015.3
20260906123304 95 142 2.6 7.0 0.00 0.00 0.00 41 1015.4
20260906122306 95 142 0.9 6.1 0.00 0.00 0.00 43 1015.3
20260906121305 96 152 2.6 5.2 0.00 0.00 0.00 44 1015.4
20260906120804 96 135 0.9 4.3 0.00 0.00 0.00 45 1015.4
20260906120304 97 140 0.9 2.6 0.00 0.00 0.00 44 1015.4
20260906115804 97 127 0.9 2.6 0.00 0.00 0.00 44 1015.4
20260906115306 97 112 0.9 2.6 0.00 0.00 0.00 43 1015.5
20260906114805 96 144 0.0 2.6 0.00 0.00 0.00 42 1015.5
20260906114305 96 141 0.0 2.6 0.00 0.00 0.00 42 1015.6
20260906113805 96 131 0.9 2.6 0.00 0.00 0.00 42 1015.6
20260906113305 96 121 0.0 0.9 0.00 0.00 0.00 41 1015.6
20260906112805 96 121 0.0 2.6 0.00 0.00 0.00 41 1015.7
20260906112306 96 98 0.0 1.7 0.00 0.00 0.00 41 1015.6
20260906111305 96 322 0.0 1.7 0.00 0.00 0.00 36 1015.9
20260906110804 96 304 0.0 1.7 0.00 0.00 0.00 31 1015.9
20260906105306 94 304 0.0 0.0 0.00 0.00 0.00 34 1016.0
20260906104804 94 304 0.0 1.7 0.00 0.00 0.00 34 1016.1
20260906104305 94 308 0.0 1.7 0.00 0.00 0.00 35 1016.1
20260906103805 94 345 0.0 0.0 0.00 0.00 0.00 35 1016.2
20260906103305 93 346 0.0 1.7 0.00 0.00 0.00 35 1016.2
20260906102805 93 286 0.0 1.7 0.00 0.00 0.00 36 1016.3
20260906101804 93 287 0.0 1.7 0.00 0.00 0.00 36 1016.3
20260906101305 92 273 0.0 1.7 0.00 0.00 0.00 37 1016.4
20260906100804 92 273 0.0 1.7 0.00 0.00 0.00 36 1016.5
20260906100306 92 273 0.0 0.9 0.00 0.00 0.00 36 1016.4
20260906095804 92 273 0.0 0.0 0.00 0.00 0.00 36 1016.5
20260906095306 91 273 0.0 0.9 0.00 0.00 0.00 36 1016.5
20260906094805 91 273 0.0 0.9 0.00 0.00 0.00 36 1016.5
20260906094305 91 273 0.0 1.7 0.00 0.00 0.00 39 1016.5
20260906093804 90 272 0.0 1.7 0.00 0.00 0.00 42 1016.6
20260906093304 90 272 0.0 1.7 0.00 0.00 0.00 43 1016.5
20260906092804 90 273 0.0 0.9 0.00 0.00 0.00 44 1016.5
20260906092306 89 273 0.0 0.0 0.00 0.00 0.00 45 1016.5
20260906091804 89 273 0.0 0.0 0.00 0.00 0.00 47 1016.5
20260906091305 88 273 0.0 0.9 0.00 0.00 0.00 47 1016.5
20260906090305 87 273 0.0 2.6 0.00 0.00 0.00 48 1016.5
20260906085307 87 267 0.0 0.0 0.00 0.00 0.00 47 1016.4
20260906084804 87 267 0.0 0.0 0.00 0.00 0.00 47 1016.4
20260906083805 86 267 0.0 0.0 0.00 0.00 0.00 48 1016.4
20260906082804 85 267 0.0 1.7 0.00 0.00 0.00 49 1016.4
20260906081804 84 268 0.0 0.9 0.00 0.00 0.00 51 1016.4
20260906081304 84 268 0.0 1.7 0.00 0.00 0.00 57 1016.4
20260906080804 84 282 0.9 2.6 0.00 0.00 0.00 61 1016.4
20260906080304 83 260 0.0 0.0 0.00 0.00 0.00 61 1016.3
20260906075805 83 259 0.0 0.0 0.00 0.00 0.00 61 1016.3
20260906075306 82 261 0.0 0.0 0.00 0.00 0.00 62 1016.3
20260906074804 82 327 0.0 0.0 0.00 0.00 0.00 63 1016.3
20260906074305 81 327 0.0 0.0 0.00 0.00 0.00 64 1016.3
20260906073804 81 327 0.0 0.0 0.00 0.00 0.00 65 1016.2
20260906073304 80 327 0.0 0.0 0.00 0.00 0.00 65 1016.2
20260906072804 80 34 0.0 0.0 0.00 0.00 0.00 66 1016.1
20260906072306 79 43 0.0 0.0 0.00 0.00 0.00 68 1016.1
20260906071304 78 42 0.0 0.0 0.00 0.00 0.00 70 1016.1
20260906070805 77 43 0.0 0.0 0.00 0.00 0.00 71 1016.1
20260906070305 77 43 0.0 0.0 0.00 0.00 0.00 72 1016.0
20260906065805 76 43 0.0 0.0 0.00 0.00 0.00 72 1016.1
20260906065306 76 43 0.0 0.0 0.00 0.00 0.00 73 1016.1
20260906064805 75 43 0.0 0.0 0.00 0.00 0.00 73 1016.1
20260906064304 75 43 0.0 0.0 0.00 0.00 0.00 73 1016.1
20260906063805 75 43 0.0 0.0 0.00 0.00 0.00 74 1016.0
20260906062805 74 43 0.0 0.0 0.00 0.00 0.00 74 1015.9
20260906062306 74 43 0.0 0.0 0.00 0.00 0.00 74 1015.9
20260906061804 74 43 0.0 0.0 0.00 0.00 0.00 74 1016.0
20260906061304 74 43 0.0 0.0 0.00 0.00 0.00 74 1015.9
20260906060804 74 43 0.0 0.0 0.00 0.00 0.00 74 1015.9
20260906060304 74 43 0.0 0.0 0.00 0.00 0.00 74 1015.9
20260906054804 73 43 0.0 0.0 0.00 0.00 0.00 75 1015.7
20260906054304 73 43 0.0 0.0 0.00 0.00 0.00 76 1015.6
20260906053804 73 43 0.0 0.0 0.00 0.00 0.00 76 1015.5
20260906053305 73 43 0.0 0.0 0.00 0.00 0.00 76 1015.5
20260906052805 73 43 0.0 0.0 0.00 0.00 0.00 76 1015.5
20260906052306 73 43 0.0 0.0 0.00 0.00 0.00 77 1015.5
20260906051304 73 43 0.0 0.0 0.00 0.00 0.00 78 1015.5
20260906050805 73 43 0.0 0.0 0.00 0.00 0.00 79 1015.5
20260906050304 73 43 0.0 0.0 0.00 0.00 0.00 79 1015.4
20260906044804 73 43 0.0 0.0 0.00 0.00 0.00 80 1015.3
20260906044304 73 43 0.0 0.0 0.00 0.00 0.00 80 1015.3
20260906043305 74 44 0.0 0.0 0.00 0.00 0.00 80 1015.4
20260906042804 74 44 0.0 0.0 0.00 0.00 0.00 80 1015.4
20260906042306 74 44 0.0 0.0 0.00 0.00 0.00 80 1015.4
20260906041805 74 44 0.0 0.0 0.00 0.00 0.00 81 1015.4
20260906041304 74 44 0.0 0.0 0.00 0.00 0.00 82 1015.4
20260906040804 74 44 0.0 0.0 0.00 0.00 0.00 82 1015.4
20260906040304 74 44 0.0 0.0 0.00 0.00 0.00 83 1015.4
20260906035804 74 44 0.0 0.0 0.00 0.00 0.00 83 1015.4
20260906035306 74 44 0.0 0.0 0.00 0.00 0.00 83 1015.4
20260906034304 74 44 0.0 0.0 0.00 0.00 0.00 82 1015.5
20260906033804 74 44 0.0 0.0 0.00 0.00 0.00 81 1015.5
20260906033304 74 44 0.0 0.0 0.00 0.00 0.00 81 1015.5
20260906032805 74 44 0.0 0.0 0.00 0.00 0.00 81 1015.5
20260906031305 74 44 0.0 0.0 0.00 0.00 0.00 82 1015.6
20260906030804 74 44 0.0 0.0 0.00 0.00 0.00 83 1015.6
20260906030304 74 44 0.0 0.0 0.00 0.00 0.00 83 1015.5
20260906025805 74 44 0.0 0.0 0.00 0.00 0.00 83 1015.5
20260906025306 75 44 0.0 0.0 0.00 0.00 0.00 84 1015.5
20260906023804 75 44 0.0 0.0 0.00 0.00 0.00 84 1015.6
20260906023304 75 44 0.0 0.0 0.00 0.00 0.00 84 1015.6
20260906022804 75 44 0.0 0.0 0.00 0.00 0.00 84 1015.6
20260906022307 75 44 0.0 0.0 0.00 0.00 0.00 84 1015.7
20260906021804 75 44 0.0 0.0 0.00 0.00 0.00 85 1015.7
20260906021304 75 44 0.0 0.0 0.00 0.00 0.00 85 1015.7
20260906020804 75 44 0.0 0.0 0.00 0.00 0.00 85 1015.7
20260906020304 75 44 0.0 0.0 0.00 0.00 0.00 86 1015.8
20260906015804 75 45 0.0 0.0 0.00 0.00 0.00 86 1015.8
20260906015306 75 45 0.0 0.0 0.00 0.00 0.00 87 1015.8
20260906014805 76 44 0.0 0.0 0.00 0.00 0.00 87 1015.9
20260906014304 76 44 0.0 0.0 0.00 0.00 0.00 87 1015.9
20260906013804 76 44 0.0 0.0 0.00 0.00 0.00 87 1016.0
20260906012804 76 44 0.0 0.0 0.00 0.00 0.00 87 1016.0
20260906012306 76 44 0.0 0.0 0.00 0.00 0.00 87 1016.0
20260906011805 76 44 0.0 0.0 0.00 0.00 0.00 87 1016.0
20260906011304 76 44 0.0 0.0 0.00 0.00 0.00 87 1016.0
20260906010804 76 44 0.0 0.0 0.00 0.00 0.00 87 1016.1
20260906010304 76 44 0.0 0.0 0.00 0.00 0.00 87 1016.1
20260906005804 76 44 0.0 0.0 0.00 0.00 0.00 86 1016.1
20260906004804 76 44 0.0 0.0 0.00 0.00 0.00 86 1016.2
20260906004304 76 44 0.0 0.0 0.00 0.00 0.00 85 1016.2
20260906002804 77 44 0.0 0.0 0.00 0.00 0.00 84 1016.2
20260906002306 77 44 0.0 0.0 0.00 0.00 0.00 84 1016.2
20260906001805 77 44 0.0 0.0 0.00 0.00 0.00 84 1016.2
20260906001304 77 44 0.0 0.0 0.00 0.00 0.00 84 1016.1
20260906000804 78 44 0.0 0.0 0.00 0.00 0.00 84 1016.2
20260906000304 78 44 0.0 0.0 0.00 0.00 0.00 84 1016.2
20260905235804 78 44 0.0 0.0 0.00 0.00 0.00 84 1016.2
20260905235306 78 44 0.0 0.0 0.00 0.00 0.00 83 1016.2